Temperature
30 29 28 29 30 30 30 29 28 29 30 30 29 27 26 26 25 24 22 21 20 19 19 18 18 18 18 18 18 18 18 18 18 18 17 17 17 17 17 17 16 16 16 16
29 28 29 30 30 30 30 29 29 29 30 30 28 27 26 25 25 24 22 21 20 20 19 19 18 18 18 18 18 18 18 18 18 17 17 17 17 17 16 16 16 16 16 16
29 29 30 30 30 30 29 28 28 28 28 29 28 25 23 23 23 23 22 22 21 20 20 19 19 18 18 18 18 18 18 17 17 17 17 17 16 16 16 16 16 16 15 15
29 30 30 29 29 29 27 28 29 28 27 26 26 23 20 21 22 23 23 22 22 21 20 20 19 18 18 18 17 17 17 17 16 16 16 16 16 16 16 15 15 15 15 15
29 30 29 29 29 29 29 29 28 27 26 25 24 22 20 19 20 22 23 23 22 21 21 20 19 19 18 18 18 17 17 16 16 16 15 15 15 15 15 15 15 15 15 15
29 30 31 31 31 31 30 29 26 24 23 22 21 21 20 20 21 22 23 23 22 21 21 20 20 19 19 18 18 18 17 16 16 15 15 15 14 14 14 14 14 14 14 14
27 28 29 31 30 30 30 27 23 20 19 20 21 21 21 22 23 24 24 23 23 22 21 21 20 19 19 19 18 18 17 16 16 15 15 14 14 14 14 14 14 14 14 14
24 25 28 30 30 29 29 28 24 22 22 22 21 20 21 23 24 24 24 24 23 22 22 21 20 20 19 19 18 17 17 16 15 15 14 14 14 13 13 13 13 13 13 13
26 26 29 30 31 30 29 29 29 27 26 24 22 20 21 24 25 25 25 24 23 23 22 21 21 20 19 19 18 17 16 16 15 15 14 14 13 13 13 13 13 13 13 13
28 27 29 30 31 31 30 30 29 27 26 25 23 22 22 23 24 25 25 24 23 22 22 21 21 20 19 18 17 17 16 15 15 14 14 13 13 13 12 12 12 12 12 12
30 28 29 29 28 29 29 29 28 28 27 26 25 23 24 24 25 25 25 24 23 22 21 21 20 19 18 17 16 16 15 14 14 13 13 13 12 12 12 12 12 12 11 11
30 29 27 26 26 28 29 28 28 26 26 27 26 23 26 26 26 25 24 23 22 21 21 20 19 18 17 16 15 15 14 13 13 13 12 12 12 11 11 11 11 11 11 11
29 27 26 24 23 25 28 29 28 27 27 26 26 25 27 26 25 24 23 23 22 21 20 19 18 17 16 15 14 14 13 13 12 12 11 11 11 10 10 10 10 10 10 10
28 28 27 26 26 27 28 28 28 27 26 26 26 26 26 25 24 24 23 22 21 20 19 18 17 16 15 14 14 13 12 12 11 11 10 10 10 10 9 9 9 9 9 9
29 28 28 28 29 29 29 28 28 27 27 26 26 26 25 24 24 23 22 21 21 20 19 17 16 15 14 14 13 12 12 11 11 10 10 10 9 9 9 9 9 9 9 9
29 27 27 28 28 28 28 28 28 28 27 27 26 26 25 24 23 22 22 21 20 19 18 16 15 14 14 13 12 12 11 10 10 9 9 9 9 9 8 8 8 8 8 8
28 27 26 26 28 28 27 28 28 27 27 27 25 25 25 24 23 22 21 20 19 18 17 16 15 14 13 12 12 11 10 10 9 9 9 9 8 8 8 8 8 8 8 8
27 26 26 27 27 25 27 29 28 27 27 27 26 25 24 23 22 21 19 18 17 17 15 15 14 13 13 12 11 10 10 9 9 9 8 8 8 8 7 7 7 7 7 7
28 26 26 26 26 26 27 27 27 26 25 26 25 24 24 23 22 21 19 18 17 16 15 14 13 13 12 11 10 10 9 9 9 8 8 8 7 7 7 7 7 7 7 7
28 27 26 26 25 25 27 27 27 26 24 24 24 23 23 22 21 21 19 17 16 15 14 13 13 12 11 10 10 9 9 8 8 8 7 7 7 7 7 7 7 7 7 7
27 26 26 25 25 26 27 27 27 25 23 23 23 23 22 21 20 19 18 17 16 15 14 13 12 11 11 10 9 9 8 8 7 7 7 7 7 7 7 7 7 7 7 7
28 27 26 26 25 25 27 27 25 23 23 23 23 22 21 20 20 19 17 16 15 14 13 13 12 11 10 9 9 8 8 7 7 7 7 7 7 7 7 7 7 7 7 6
29 28 27 27 26 26 26 26 25 24 23 23 22 21 21 20 19 18 17 15 15 14 13 12 11 11 10 9 9 8 8 7 7 7 7 7 7 7 7 7 7 7 7 6
29 29 27 26 27 27 26 26 25 24 23 23 22 21 20 19 18 17 16 15 14 13 12 12 11 10 9 9 8 8 7 7 7 7 7 7 7 7 7 7 7 7 7 6
28 28 27 26 27 27 26 26 25 24 23 22 22 21 20 19 18 17 16 15 14 13 12 11 10 10 9 8 8 8 7 7 7 7 7 7 7 7 7 7 7 7 7 6
28 28 27 26 27 26 26 25 24 24 23 22 21 20 19 18 17 16 15 14 13 12 12 11 10 9 9 8 8 7 7 7 7 6 7 7 7 7 7 7 7 7 7 7
Wind_Speed
11 9 9 11 11 11 9 7 6 4 3 2 4 9 10 8 9 11 10 9 9 8 8 7 8 8 9 8 8 7 6 5 4 3 4 4 4 4 3 3 3 4 5 6
8 8 12 14 10 11 10 9 8 4 1 4 3 6 9 7 8 10 10 9 9 8 7 7 7 7 8 7 5 5 5 5 4 3 3 3 3 4 2 2 2 3 4 4
7 6 10 11 11 11 10 10 9 8 7 9 7 4 8 6 7 8 8 9 9 9 8 7 7 7 6 5 5 5 4 4 4 5 4 4 3 3 3 3 2 3 4 4
5 7 8 9 10 9 8 10 12 10 9 7 5 2 5 5 3 6 8 8 8 8 8 7 7 6 5 4 4 3 2 2 3 5 5 6 6 5 5 4 3 4 4 3
8 10 8 7 8 7 8 8 8 12 12 9 5 3 4 7 7 8 8 9 8 7 7 6 5 4 3 2 2 2 2 0 2 4 6 6 6 6 6 6 6 5 4 3
13 12 9 7 6 9 10 6 9 11 8 8 6 2 3 7 10 11 10 9 8 7 6 5 3 3 2 2 1 1 0 1 3 4 6 6 8 8 8 9 8 6 4 3
12 10 11 9 7 8 10 6 5 6 4 6 8 2 1 7 10 10 9 8 7 6 5 4 4 4 4 4 3 2 2 3 3 5 6 6 8 8 9 10 8 7 5 4
4 7 7 7 7 8 9 5 2 4 6 4 1 1 1 5 9 9 7 5 4 3 2 2 2 3 3 4 2 3 4 4 5 5 6 7 8 7 7 8 8 8 7 6
4 7 7 5 6 7 8 8 8 7 7 1 4 5 2 3 6 6 4 3 2 1 1 2 3 4 5 6 5 5 5 6 6 7 7 8 8 8 8 9 9 8 7 8
5 9 7 5 5 3 7 10 7 7 8 6 4 4 5 4 3 3 3 3 3 3 5 5 5 5 6 6 6 7 7 8 8 8 8 11 8 8 9 9 9 9 9 9
7 8 9 7 6 9 8 9 9 8 8 9 5 4 6 3 3 5 6 6 5 6 7 8 8 8 8 9 9 8 8 9 9 9 9 9 9 9 9 9 9 9 9 9
8 6 7 10 14 12 6 6 8 8 9 8 6 5 4 4 5 7 8 9 9 9 9 9 10 10 10 10 10 10 9 9 9 9 9 9 9 9 10 11 10 10 10 9
8 6 6 3 6 9 5 4 6 7 7 7 7 4 3 7 9 9 9 9 9 9 9 10 9 10 10 10 10 10 10 10 10 10 10 10 10 10 10 11 10 10 10 10
4 7 9 8 4 4 4 4 4 5 6 8 9 9 7 10 10 10 10 10 10 10 9 9 8 8 9 9 9 11 10 11 11 11 11 11 10 10 11 11 11 11 11 10
4 8 10 10 8 7 6 6 5 5 6 8 10 10 10 10 10 10 10 11 11 10 10 11 10 9 9 10 10 10 11 11 11 11 12 11 11 11 11 12 12 11 11 13
2 7 12 13 9 9 10 6 4 5 7 8 10 8 10 11 11 11 11 11 10 10 12 13 12 12 11 11 12 12 11 11 11 12 13 12 12 12 12 12 12 11 11 11
6 6 10 12 10 11 9 4 2 4 7 8 9 8 10 11 11 11 10 8 10 11 12 13 13 12 10 11 10 12 12 12 12 13 14 12 12 13 13 15 13 13 12 12
6 7 7 12 12 11 4 2 2 3 6 7 6 8 9 10 11 9 9 9 10 11 12 12 13 13 12 11 11 12 14 14 13 14 13 13 13 14 13 13 13 12 11 11
7 6 8 10 12 9 2 3 1 3 5 6 6 8 9 10 11 4 10 10 10 11 11 11 12 13 12 12 13 14 15 14 15 15 14 14 15 15 15 15 14 12 12 11
7 7 8 10 12 15 5 7 3 2 0 7 7 7 9 10 9 8 11 11 10 11 11 11 12 12 11 11 12 14 15 15 15 16 16 15 15 15 16 15 14 12 11 11
8 9 10 11 13 7 8 6 2 5 3 6 7 7 8 7 7 9 10 10 10 10 11 12 12 11 10 11 12 13 15 15 15 16 16 15 15 15 15 13 11 12 11 10
7 8 8 9 10 3 4 2 4 4 3 4 6 6 7 7 8 9 10 10 11 12 12 13 11 11 10 11 12 13 14 14 15 16 16 16 15 15 14 12 12 11 10 10
6 5 5 5 5 2 0 2 3 2 2 4 5 5 6 7 8 9 9 10 11 12 12 12 13 12 11 11 12 14 14 14 15 16 16 16 16 13 12 12 11 10 8 7
6 2 3 5 7 5 4 2 2 2 1 3 3 4 5 6 8 8 8 9 10 11 11 11 13 13 12 12 12 12 13 13 14 16 16 15 14 13 12 9 8 8 7 7
11 9 10 10 8 8 6 4 3 2 2 2 3 3 4 5 7 7 7 8 9 10 10 11 11 12 13 13 12 13 13 13 15 15 15 14 13 12 11 9 7 7 5 4
12 10 8 6 4 5 5 2 3 3 3 3 2 3 3 4 5 7 7 8 9 10 10 11 12 12 13 13 12 12 12 12 14 14 14 12 11 10 10 9 8 5 5 4
Wind_Direction
252 248 276 282 273 276 287 293 271 217 195 233 172 144 133 136 137 125 116 111 104 96 93 85 79 82 82 76 73 68 61 50 22 19 354 348 344 336 330 325 347 329 312 302
258 258 275 282 294 291 289 297 300 299 313 273 194 142 128 128 114 112 118 120 122 122 112 104 104 97 89 84 82 82 66 47 23 14 334 306 307 299 310 339 333 323 314 310
282 269 270 287 297 303 314 324 313 298 279 264 241 168 110 97 104 115 122 129 136 135 128 123 114 106 100 90 74 69 55 37 16 348 329 335 322 308 331 333 333 340 325 313
305 283 287 298 296 305 312 306 295 293 279 272 262 239 127 144 160 147 146 139 134 131 133 133 132 123 116 117 111 107 85 32 3 342 347 339 326 330 335 334 335 335 316 306
298 284 280 283 287 293 287 279 325 341 330 312 326 329 153 160 191 176 163 149 141 140 139 138 138 134 132 146 149 154 154 34 335 327 320 320 321 326 326 327 317 311 296 277
300 295 293 289 288 299 305 309 7 5 351 319 304 306 175 186 185 177 167 153 153 152 155 160 164 167 199 238 272 296 111 299 296 299 305 307 307 308 307 303 299 296 288 283
317 311 309 310 324 325 317 323 4 1 339 270 269 289 182 177 161 158 153 149 157 159 171 181 201 219 227 244 256 279 296 292 291 293 300 304 304 301 290 284 287 291 293 294
322 309 298 321 330 315 309 308 277 282 270 255 208 76 100 119 124 127 129 138 151 155 170 216 250 256 269 285 303 309 307 303 298 292 292 290 289 285 288 299 311 308 302 294
299 300 287 302 305 317 324 329 322 300 302 333 143 137 193 151 114 111 119 118 108 76 313 305 310 314 316 323 333 336 330 321 311 302 297 286 279 284 289 292 288 284 283 287
311 309 307 305 296 278 322 329 340 334 338 345 95 116 137 125 62 31 42 50 36 353 333 334 333 340 350 350 353 349 339 331 325 316 305 303 304 300 291 287 285 283 281 280
318 306 312 325 348 344 343 356 356 345 350 339 0 82 109 101 42 26 19 24 7 354 344 342 349 360 358 351 344 344 340 333 325 318 310 306 302 298 295 287 281 279 276 273
333 318 338 7 355 334 336 0 357 351 342 331 338 106 108 91 62 41 18 9 5 353 345 349 353 355 350 344 340 336 332 325 321 319 316 312 311 308 304 302 299 297 292 283
343 327 317 359 339 297 302 10 6 343 318 327 345 84 106 67 44 26 11 0 349 347 352 353 357 352 344 340 336 329 326 323 321 319 316 314 313 311 306 302 299 296 292 288
297 291 307 320 325 309 320 344 1 346 338 338 354 358 25 42 22 9 1 351 343 347 354 355 357 347 342 335 330 325 322 321 319 319 315 311 309 306 303 301 298 294 290 287
290 302 308 309 314 316 322 326 331 334 333 327 335 341 33 30 11 1 352 343 335 340 349 351 348 340 336 332 328 324 324 323 321 316 312 310 308 305 303 302 298 295 292 289
280 307 309 305 304 298 292 281 291 315 321 323 325 341 33 16 3 351 341 333 338 348 347 344 339 337 334 330 327 328 324 323 322 317 312 308 305 305 301 298 295 292 290 289
292 293 298 300 301 293 298 263 260 318 330 329 327 358 15 356 350 339 340 1 358 347 343 341 338 333 330 329 332 329 327 325 320 313 310 311 311 309 307 306 304 299 294 290
270 294 293 292 298 295 293 75 53 343 327 329 347 11 3 349 342 353 42 23 356 348 344 339 332 329 330 333 334 332 327 321 317 315 316 317 316 313 309 305 302 298 293 288
209 253 282 292 296 299 197 174 131 333 326 22 16 2 352 345 325 42 42 17 2 352 343 333 329 329 332 335 336 329 322 321 320 321 322 319 316 312 309 306 303 300 294 287
195 214 254 279 292 298 308 117 101 300 188 37 16 0 345 337 327 344 6 3 359 349 338 332 331 332 332 336 333 325 322 324 325 324 320 318 314 310 307 303 300 297 292 286
218 226 246 272 282 302 90 111 265 303 54 24 4 349 341 350 329 334 349 356 352 342 336 337 337 333 335 334 331 325 325 327 327 322 319 316 312 309 304 303 301 298 294 289
270 272 269 272 280 316 96 331 3 68 54 351 344 341 345 336 332 341 348 349 344 339 338 340 336 333 335 336 332 327 326 328 325 322 318 316 314 312 312 308 304 301 298 293
268 292 319 329 327 158 293 26 83 103 324 332 334 338 335 331 335 342 345 344 339 339 339 338 335 332 335 337 335 328 327 326 325 322 319 317 316 314 311 309 308 307 303 297
315 5 294 291 291 289 284 244 195 191 260 308 314 322 330 330 335 340 340 340 340 338 336 337 335 333 335 335 333 330 328 328 326 323 320 318 317 316 316 312 309 309 309 308
307 292 278 273 276 274 263 241 219 197 215 275 298 317 330 332 334 337 337 340 338 334 337 337 335 334 334 335 333 332 331 330 326 322 319 319 318 316 314 313 311 310 317 312
285 289 288 294 321 304 294 228 213 218 233 256 284 301 316 325 329 334 336 339 337 334 337 337 337 336 334 334 332 332 333 331 325 321 321 319 319 319 317 316 315 308 298 293
Height
1480 1484 1486 1478 1472 1471 1468 1471 1472 1468 1461 1463 1467 1473 1478 1482 1485 1490 1495 1498 1501 1502 1504 1504 1504 1505 1505 1506 1507 1507 1508 1508 1508 1508 1508 1507 1507 1506 1505 1503 1502 1500 1498 1495
1479 1484 1477 1472 1468 1468 1467 1471 1471 1465 1459 1463 1469 1475 1479 1483 1487 1491 1495 1499 1502 1504 1505 1505 1506 1506 1507 1507 1508 1508 1508 1508 1507 1507 1506 1506 1505 1504 1503 1501 1499 1497 1495 1492
1480 1478 1471 1470 1469 1470 1470 1473 1473 1473 1466 1465 1471 1483 1486 1490 1492 1495 1497 1499 1502 1504 1505 1506 1507 1508 1508 1508 1508 1508 1508 1507 1507 1506 1505 1505 1503 1502 1501 1499 1497 1495 1493 1490
1475 1472 1470 1471 1471 1470 1478 1470 1469 1470 1474 1478 1478 1498 1500 1497 1496 1496 1499 1500 1502 1504 1505 1507 1507 1508 1508 1509 1508 1508 1507 1506 1505 1505 1504 1503 1502 1500 1499 1497 1495 1492 1491 1489
1477 1471 1470 1472 1469 1467 1469 1464 1470 1475 1480 1483 1487 1501 1506 1501 1501 1497 1498 1500 1502 1504 1505 1507 1507 1508 1508 1508 1508 1507 1506 1505 1504 1503 1502 1500 1499 1497 1496 1494 1492 1490 1488 1486
1474 1468 1465 1463 1461 1461 1460 1466 1477 1484 1492 1506 1503 1508 1510 1502 1497 1495 1496 1499 1501 1503 1504 1506 1506 1507 1507 1507 1507 1506 1505 1503 1502 1500 1499 1497 1496 1494 1492 1490 1488 1487 1485 1484
1484 1474 1467 1462 1463 1463 1463 1477 1505 1519 1523 1516 1498 1504 1504 1490 1488 1491 1493 1496 1499 1501 1502 1504 1504 1505 1505 1504 1504 1503 1502 1500 1498 1497 1495 1494 1492 1490 1488 1486 1485 1483 1482 1481
1500 1494 1473 1464 1465 1468 1465 1472 1498 1514 1512 1503 1501 1510 1499 1489 1489 1491 1493 1495 1497 1499 1501 1501 1502 1502 1502 1502 1501 1500 1499 1497 1495 1493 1491 1490 1488 1486 1484 1482 1481 1479 1478 1477
1491 1488 1467 1463 1461 1462 1466 1466 1464 1477 1480 1492 1503 1506 1498 1488 1488 1489 1491 1493 1495 1497 1498 1499 1500 1500 1500 1499 1498 1497 1496 1494 1492 1490 1487 1485 1483 1481 1479 1477 1475 1474 1473 1472
1474 1483 1467 1461 1459 1459 1462 1460 1466 1476 1488 1492 1498 1502 1502 1494 1490 1488 1490 1492 1494 1496 1497 1497 1498 1498 1497 1496 1495 1494 1492 1490 1488 1485 1483 1481 1478 1476 1474 1471 1470 1468 1467 1466
1468 1478 1473 1466 1470 1470 1467 1468 1470 1473 1476 1489 1498 1506 1488 1489 1487 1488 1489 1491 1493 1494 1495 1496 1496 1496 1495 1494 1493 1491 1488 1486 1484 1481 1478 1476 1473 1470 1468 1466 1464 1462 1460 1459
1468 1473 1483 1485 1478 1470 1468 1471 1474 1487 1488 1481 1486 1502 1481 1483 1485 1487 1489 1491 1493 1494 1495 1495 1494 1494 1493 1491 1490 1487 1485 1482 1479 1476 1473 1470 1467 1465 1462 1460 1457 1455 1453 1452
1475 1481 1492 1498 1498 1483 1473 1469 1471 1476 1480 1483 1489 1496 1479 1481 1485 1488 1490 1492 1493 1493 1493 1493 1493 1492 1491 1489 1486 1484 1481 1478 1475 1472 1468 1465 1462 1459 1456 1453 1451 1448 1446 1445
1478 1480 1488 1496 1490 1478 1475 1471 1471 1478 1486 1488 1486 1486 1480 1483 1486 1488 1490 1492 1492 1492 1492 1492 1491 1490 1488 1486 1483 1480 1477 1474 1470 1467 1463 1460 1456 1453 1450 1447 1444 1442 1439 1437
1476 1480 1477 1473 1469 1468 1470 1471 1472 1476 1480 1486 1485 1483 1483 1485 1487 1489 1490 1491 1491 1491 1491 1490 1489 1487 1485 1482 1479 1476 1472 1469 1465 1462 1458 1454 1451 1447 1443 1440 1437 1434 1432 1430
1475 1482 1479 1477 1470 1469 1470 1469 1471 1474 1476 1479 1481 1482 1482 1485 1487 1489 1489 1489 1489 1489 1489 1488 1486 1484 1481 1478 1475 1472 1468 1464 1460 1456 1452 1448 1445 1441 1437 1434 1430 1427 1424 1422
1475 1480 1485 1484 1472 1472 1477 1469 1471 1474 1474 1478 1483 1484 1483 1485 1488 1488 1488 1488 1489 1488 1487 1486 1484 1481 1478 1475 1471 1467 1463 1459 1455 1451 1447 1443 1439 1435 1431 1428 1424 1420 1417 1414
1478 1481 1483 1481 1480 1494 1476 1464 1467 1473 1475 1475 1477 1481 1484 1486 1487 1487 1487 1488 1488 1487 1485 1483 1481 1478 1475 1471 1467 1463 1459 1455 1451 1446 1442 1438 1434 1429 1425 1421 1417 1413 1410 1406
1472 1479 1483 1484 1485 1479 1471 1466 1469 1475 1478 1476 1480 1483 1485 1486 1486 1486 1487 1487 1486 1485 1483 1481 1478 1474 1471 1467 1463 1459 1455 1451 1446 1442 1437 1433 1428 1423 1418 1414 1410 1406 1402 1399
1470 1474 1481 1482 1489 1491 1471 1466 1469 1474 1481 1481 1481 1483 1485 1485 1486 1485 1486 1485 1484 1483 1480 1477 1474 1471 1467 1463 1459 1455 1451 1446 1442 1437 1432 1427 1422 1417 1412 1408 1404 1400 1396 1392
1474 1476 1479 1481 1483 1473 1467 1468 1470 1481 1487 1482 1482 1483 1484 1485 1487 1487 1485 1483 1482 1480 1478 1474 1471 1468 1464 1460 1456 1451 1447 1443 1438 1432 1427 1422 1417 1412 1407 1402 1398 1394 1390 1387
1468 1472 1474 1475 1482 1481 1468 1468 1473 1481 1480 1481 1482 1483 1484 1484 1484 1484 1483 1481 1480 1477 1475 1471 1468 1464 1460 1456 1452 1447 1443 1438 1433 1428 1422 1417 1412 1407 1403 1398 1393 1389 1385 1382
1460 1462 1466 1470 1474 1470 1468 1471 1474 1477 1479 1480 1481 1482 1482 1483 1483 1482 1481 1479 1477 1475 1472 1469 1465 1461 1457 1453 1449 1444 1439 1434 1429 1423 1418 1413 1408 1403 1398 1394 1389 1385 1382 1378
1457 1458 1463 1467 1464 1465 1466 1468 1471 1474 1476 1478 1479 1480 1481 1481 1480 1480 1478 1477 1475 1472 1469 1466 1462 1458 1454 1450 1445 1441 1435 1430 1425 1420 1414 1409 1404 1400 1395 1391 1387 1383 1379 1376
1461 1460 1461 1462 1462 1462 1464 1465 1468 1471 1474 1475 1477 1478 1479 1479 1478 1478 1476 1474 1472 1470 1466 1463 1459 1455 1451 1446 1442 1437 1432 1427 1422 1416 1411 1406 1402 1397 1392 1388 1385 1381 1377 1374
1457 1456 1457 1459 1459 1461 1462 1464 1466 1469 1471 1473 1475 1476 1476 1476 1476 1475 1474 1472 1470 1467 1464 1460 1456 1452 1448 1443 1439 1434 1429 1424 1419 1413 1408 1404 1399 1395 1391 1386 1382 1378 1376 1372